Weather History for Americus, GA

Change the Weather History Date:

Tuesday, February 25, 2014

  Actual Average (KABY) Record (KABY)
Temperature  
Mean Temperature 57 °F 55 °F  
Max Temperature 68 °F 67 °F 82 °F (2001)
Min Temperature 46 °F 42 °F 16 °F (1989)
Degree Days  
Heating Degree Days 8 11  
Month to date heating degree days 325  
Since 1 July heating degree days 1529  
Cooling Degree Days 0 0  
Month to date cooling degree days 0  
Year to date cooling degree days 4  
Growing Degree Days 7 (Base 50)    
Moisture  
Dew Point 43 °F    
Average Humidity 60    
Maximum Humidity 94    
Minimum Humidity 34    
Precipitation  
Precipitation 0.00 in 0.16 in 2.08 in (2006)
Month to date precipitation 3.65  
Year to date precipitation 8.47  
Sea Level Pressure  
Sea Level Pressure 30.04 in    
Wind  
Wind Speed 3 mph (NW)    
Max Wind Speed 12 mph    
Max Gust Speed 16 mph    
Visibility 10 miles    
Events      
T = Trace of Precipitation, MM = Missing Value Source: NWS Daily Summary

Daily Weather History Graph

Daily Weather History Graph

Search for Another Location

Airport:

Trip Planner

Search our weather history database for the weather conditions in past years. The results will help you decide how hot, cold, wet, or windy it might be!

Date:

Astronomy

Feb. 25, 2014 Rise Set
Actual Time 7:08 AM EST 6:31 PM EST
Civil Twilight 6:44 AM EST 6:56 PM EST
Nautical Twilight 6:15 AM EST 7:24 PM EST
Astronomical Twilight 5:47 AM EST 7:52 PM EST
Moon 3:53 AM EST (2/25) 2:45 PM EST (2/25)
Length of Visible Light 12h 12m
Length of Day
11h 22m
Waning Crescent, 18% of the Moon is Illuminated
Feb 25
Waning Crescent
Mar 1
New
Mar 8
First Quarter
Mar 16
Full
Mar 23
Last Quarter

Hourly Weather History & Observations

Time (EST) Temp. Dew Point Humidity Pressure Visibility Wind Dir Wind Speed Gust Speed Precip Events Conditions
12:10 AM 51.8 °F 39.2 °F 62% 30.09 in 10.0 mi NNE 3.5 mph - N/A   Clear
12:30 AM 51.8 °F 37.4 °F 58% 30.08 in 10.0 mi Calm Calm - N/A   Clear
12:55 AM 51.8 °F 37.4 °F 58% 30.08 in 10.0 mi NNE 3.5 mph - N/A   Clear
1:10 AM 50.0 °F 37.4 °F 62% 30.08 in 10.0 mi Calm Calm - N/A   Clear
1:30 AM 51.8 °F 35.6 °F 54% 30.08 in 10.0 mi Calm Calm - N/A   Clear
1:50 AM 50.0 °F 37.4 °F 62% 30.08 in 10.0 mi Calm Calm - N/A   Clear
2:10 AM 50.0 °F 39.2 °F 66% 30.07 in 10.0 mi Calm Calm - N/A   Clear
2:50 AM 51.8 °F 35.6 °F 54% 30.07 in 10.0 mi NNE 3.5 mph - N/A   Clear
3:10 AM 50.0 °F 35.6 °F 58% 30.05 in 10.0 mi Calm Calm - N/A   Clear
4:55 AM 50.0 °F 35.6 °F 58% 30.07 in 10.0 mi Calm Calm - N/A   Clear
5:15 AM 50.0 °F 35.6 °F 58% 30.08 in 10.0 mi Calm Calm - N/A   Clear
5:35 AM 48.2 °F 42.8 °F 82% 30.08 in 10.0 mi Calm Calm - N/A   Clear
5:55 AM 48.2 °F 41.0 °F 76% 30.08 in 10.0 mi Calm Calm - N/A   Clear
6:15 AM 50.0 °F 39.2 °F 66% 30.08 in 10.0 mi Calm Calm - N/A   Clear
6:35 AM 48.2 °F 41.0 °F 76% 30.08 in 10.0 mi Calm Calm - N/A   Clear
6:55 AM 46.4 °F 42.8 °F 87% 30.08 in 10.0 mi Calm Calm - N/A   Clear
7:15 AM 48.2 °F 41.0 °F 76% 30.08 in 10.0 mi Calm Calm - N/A   Clear
7:30 AM 48.2 °F 42.8 °F 82% 30.08 in 10.0 mi Calm Calm - N/A   Clear
7:55 AM 50.0 °F 41.0 °F 71% 30.09 in 10.0 mi Calm Calm - N/A   Clear
8:15 AM 50.0 °F 42.8 °F 76% 30.09 in 10.0 mi Calm Calm - N/A   Clear
8:35 AM 50.0 °F 41.0 °F 71% 30.09 in 10.0 mi Calm Calm - N/A   Clear
8:55 AM 51.8 °F 39.2 °F 62% 30.10 in 10.0 mi Calm Calm - N/A   Clear
9:15 AM 55.4 °F 35.6 °F 47% 30.10 in 10.0 mi Calm Calm - N/A   Clear
9:35 AM 59.0 °F 35.6 °F 42% 30.10 in 10.0 mi Calm Calm - N/A   Clear
9:55 AM 60.8 °F 35.6 °F 39% 30.09 in 10.0 mi Calm Calm - N/A   Clear
10:15 AM 62.6 °F 35.6 °F 37% 30.09 in 10.0 mi Calm Calm - N/A   Clear
10:35 AM 62.6 °F 35.6 °F 37% 30.10 in 10.0 mi WSW 3.5 mph - N/A   Clear
10:55 AM 64.4 °F 35.6 °F 34% 30.10 in 10.0 mi SW 5.8 mph - N/A   Scattered Clouds
11:15 AM 66.2 °F 37.4 °F 35% 30.10 in 10.0 mi SSW 6.9 mph - N/A   Scattered Clouds
11:35 AM 68.0 °F 39.2 °F 35% 30.09 in 10.0 mi WSW 8.1 mph - N/A   Mostly Cloudy
12:20 PM 68.0 °F 39.2 °F 35% 30.09 in 10.0 mi WNW 8.1 mph - N/A   Overcast
12:35 PM 68.0 °F 41.0 °F 37% 30.07 in 10.0 mi North 10.4 mph - N/A   Overcast
12:55 PM 68.0 °F 41.0 °F 37% 30.07 in 10.0 mi North 3.5 mph - N/A   Overcast
1:10 PM 68.0 °F 41.0 °F 37% 30.06 in 10.0 mi North 9.2 mph - N/A   Overcast
1:30 PM 66.2 °F 41.0 °F 40% 30.05 in 10.0 mi North 9.2 mph - N/A   Overcast
1:50 PM 66.2 °F 42.8 °F 43% 30.04 in 10.0 mi NNW 5.8 mph - N/A   Overcast
2:10 PM 68.0 °F 42.8 °F 40% 30.03 in 10.0 mi NNW 5.8 mph - N/A   Overcast
2:30 PM 68.0 °F 46.4 °F 46% 30.02 in 10.0 mi NW 10.4 mph - N/A   Mostly Cloudy
2:50 PM 68.0 °F 46.4 °F 46% 30.01 in 10.0 mi NNW 9.2 mph - N/A   Scattered Clouds
3:10 PM 68.0 °F 44.6 °F 43% 30.00 in 10.0 mi WNW 10.4 mph - N/A   Scattered Clouds
3:30 PM 68.0 °F 44.6 °F 43% 30.00 in 10.0 mi WNW 11.5 mph 16.1 mph N/A   Mostly Cloudy
3:50 PM 68.0 °F 44.6 °F 43% 29.99 in 10.0 mi WNW 9.2 mph - N/A   Mostly Cloudy
4:10 PM 68.0 °F 46.4 °F 46% 30.00 in 10.0 mi WNW 9.2 mph - N/A   Scattered Clouds
4:30 PM 68.0 °F 46.4 °F 46% 29.99 in 10.0 mi West 8.1 mph - N/A   Mostly Cloudy
4:50 PM 68.0 °F 48.2 °F 49% 29.99 in 10.0 mi West 10.4 mph - N/A   Overcast
5:15 PM 68.0 °F 48.2 °F 49% 29.99 in 10.0 mi West 9.2 mph - N/A   Scattered Clouds
5:30 PM 66.2 °F 50.0 °F 56% 29.99 in 10.0 mi WNW 9.2 mph - N/A   Clear
5:55 PM 66.2 °F 50.0 °F 56% 29.99 in 10.0 mi West 5.8 mph - N/A   Mostly Cloudy
6:10 PM 66.2 °F 50.0 °F 56% 29.99 in 10.0 mi West 4.6 mph - N/A   Overcast
6:30 PM 64.4 °F 50.0 °F 59% 29.98 in 10.0 mi West 3.5 mph - N/A   Overcast
6:50 PM 64.4 °F 48.2 °F 56% 29.98 in 10.0 mi Calm Calm - N/A   Scattered Clouds
7:10 PM 60.8 °F 50.0 °F 68% 29.99 in 10.0 mi WNW 3.5 mph - N/A   Scattered Clouds
7:35 PM 62.6 °F 50.0 °F 63% 29.99 in 10.0 mi WNW 3.5 mph - N/A   Mostly Cloudy
7:50 PM 60.8 °F 50.0 °F 68% 29.99 in 10.0 mi Calm Calm - N/A   Scattered Clouds
8:10 PM 59.0 °F 50.0 °F 72% 29.99 in 10.0 mi North 3.5 mph - N/A   Clear
8:30 PM 55.4 °F 50.0 °F 82% 29.99 in 10.0 mi Calm Calm - N/A   Clear
8:50 PM 55.4 °F 50.0 °F 82% 29.99 in 10.0 mi Calm Calm - N/A   Mostly Cloudy
9:15 PM 55.4 °F 50.0 °F 82% 29.99 in 10.0 mi Calm Calm - N/A   Overcast
9:35 PM 55.4 °F 50.0 °F 82% 29.99 in 10.0 mi Calm Calm - N/A   Scattered Clouds
9:50 PM 53.6 °F 50.0 °F 88% 29.98 in 10.0 mi Calm Calm - N/A   Clear
10:15 PM 53.6 °F 48.2 °F 82% 29.98 in 10.0 mi Calm Calm - N/A   Scattered Clouds
10:35 PM 53.6 °F 48.2 °F 82% 29.98 in 10.0 mi Calm Calm - N/A   Overcast
10:55 PM 55.4 °F 50.0 °F 82% 29.98 in 10.0 mi Calm Calm - N/A   Overcast
11:15 PM 53.6 °F 50.0 °F 88% 29.97 in 10.0 mi Calm Calm - N/A   Overcast
11:35 PM 53.6 °F 51.8 °F 94% 29.97 in 10.0 mi Calm Calm - N/A   Overcast
11:55 PM 53.6 °F 50.0 °F 88% 29.96 in 10.0 mi Calm Calm - N/A   Overcast